Regional Weather Roundup
Issued by NWS Sterling, VA

Home | Current Version | Previous Version | Text Only | Print | Product List | Glossary Off
Versions: 1 2 3 4 5 6 7 8 9 10 11 12 13 14 15 16 17 18 19 20 21 22 23 24 25 26 27

000
ASUS41 KLWX 241011
RWRLWX

REGIONAL WEATHER ROUNDUP
NATIONAL WEATHER SERVICE BALTIMORE MD/WASHINGTON DC
500 AM EST TUE JAN 24 2017

Note: "FAIR" indicates few or no clouds below 12,000 feet
with no significant weather and/or obstructions to visibility.
 TC=TEMPERATURE CELSIUS

 * =Non NWS site. Station does not report precipitation (e.g. rain,
    snow, etc.), thunder, or fog.

DCZ001-MDZ009-015-VAZ040>042-051-053>054-241100-
WASHINGTON METRO

CITY           SKY/WX    TMP DP  RH WIND       PRES   REMARKS
WASHINGTON NAT LGT RAIN  39  37  92 NW17G26   29.47S
DULLES         DRIZZLE   36  34  92 NW16G22   29.50S WCI  26
ANDREWS AFB    LGT RAIN  37  36  94 NW15      29.44S WCI  28
FT BELVOIR     CLOUDY    37  36  93 NW13G21   29.48R
QUANTICO       CLOUDY    39  37  92 N16G28    29.50R
COLLEGE PARK*  CLOUDY    36  34  93 NW13      29.46S WCI  27
LEESBURG*      CLOUDY    37  37 100 NW13G21   29.51F FOG
GAITHERSBURG*  CLOUDY    36  32  87 NW9       29.51S WCI  29

$$

MDZ006>007-011-014-241100-
BALTIMORE METRO

CITY           SKY/WX    TMP DP  RH WIND       PRES   REMARKS
BWI AIRPORT    CLOUDY    38  36  92 NW13      29.44S
MD SCIENCE CTR   N/A     41  34  76 MISG      29.44S
ANNAPOLIS      CLOUDY    41  36  82 NW12      29.43R
FORT MEADE*    CLOUDY    36  36 100 NW8       29.47S

$$

MDZ012-015-019>023-241100-
MARYLAND EASTERN SHORE

CITY           SKY/WX    TMP DP  RH WIND       PRES   REMARKS
OCEAN CITY     CLOUDY    40  38  93 N16G23    29.32R
SALISBURY      CLOUDY    39  38  96 N13       29.35R
BAY BRIDGE AP* CLOUDY    39  36  87 N15G22    29.43R
CAMBRIDGE*     CLOUDY    37  36  93 NW9G18    29.40R
EASTON*        CLOUDY    39  37  91 N9        29.44R

$$

MDZ017>025-241100-
SOUTHERN MARYLAND

CITY           SKY/WX    TMP DP  RH WIND       PRES   REMARKS
PATUXENT RIVER CLOUDY    39  37  92 NW18G25   29.42R
ST INIGOES     CLOUDY    39  38  96 NW10G18   29.42R
LEONARDTOWN*   CLOUDY    36  36 100 NW9       29.45R WCI  29

$$

MDZ003>005-241100-
NORTH CENTRAL MARYLAND

CITY           SKY/WX    TMP DP  RH WIND       PRES   REMARKS
FREDERICK*     CLOUDY    37  37 100 CALM      29.53S
HAGERSTOWN APT CLOUDY    36  33  89 NW12      29.51S WCI  28
WESTMINSTER*   LGT RAIN  34  34 100 N8G16     29.46S WCI  27

$$

MDZ501>502-241100-
WESTERN MARYLAND

CITY           SKY/WX    TMP DP  RH WIND       PRES   REMARKS
OAKLAND*       FOG       28  28 100 NW6       29.52R VSB 1/4
CUMBERLAND*    MOCLDY    36  36 100 CALM      29.61S

$$

VAZ025>031-241100-
SHENANDOAH VALLEY

CITY           SKY/WX    TMP DP  RH WIND       PRES   REMARKS
WINCHESTER*    CLOUDY    34  32  93 NW14      29.53F WCI  24
FRONT ROYAL*   CLOUDY    36  34  93 NW5       29.53F
LURAY*         CLOUDY    34  34 100 CALM      29.54S
NEW MARKET*    CLOUDY    34  33  96 CALM      29.54R
STAUNTON*      CLOUDY    35  31  87 N9        29.54S WCI  27
WAYNESBORO*    CLOUDY    33  32  96 NW6       29.52R

$$

WVZ021-048>050-054>055-241100-
EASTERN WEST VIRGINIA PANHANDLE

CITY           SKY/WX    TMP DP  RH WIND       PRES   REMARKS
MARTINSBURG    CLOUDY    37  33  85 NW8       29.53S
PETERSBURG*    CLOUDY    36  35  95 CALM      29.59R

$$

VAZ036>039-050-241100-
CENTRAL FOOTHILLS

CITY           SKY/WX    TMP DP  RH WIND       PRES   REMARKS
CHARLOTTESVILL MOCLDY    40  31  70 NW6       29.50R
CULPEPER*      CLOUDY    38  35  87 N8        29.52S
ORANGE*          N/A     37  36  93 NW7       29.52S
GORDONSVILLE*  MOSUNNY   37  33  84 CALM      29.50S
WARRENTON*     CLOUDY    38  34  82 NW12      29.50S

$$

VAZ055>057-241100-
NORTH AND CENTRAL PIEDMONT

CITY           SKY/WX    TMP DP  RH WIND       PRES   REMARKS
FREDERICKSBRG* CLOUDY    38  38 100 NW9       29.50R
STAFFORD*      LGT RAIN  36  36 100 NW13      29.53S WCI  28

$$

NCZ024-NYZ072-PAZ021-071-VAZ022-071-241100-
OTHER REGIONAL OBSERVATIONS

CITY           SKY/WX    TMP DP  RH WIND       PRES   REMARKS
NEW YORK CITY  MIX PCPN  36  35  96 NE10G21   29.39R FOG     WCI  28
PHILADELPHIA   LGT RAIN  37  34  89 N16G23    29.39R FOG     WCI  28
PITTSBURGH     CLOUDY    36  36 100 NW6       29.61S
ROANOKE        CLOUDY    44  35  70 N9        29.55R
RICHMOND       CLOUDY    38  36  92 NW13G23   29.48R
RALEIGH        CLOUDY    43  37  79 VRB3      29.54R

$$

ANZ530>537-241100-
MARINE OBSERVATIONS

STATION/POSITION TIME  TEMP    WIND        PRES
                       AIR SEA DIR/SP/G
                 (UTC) (F)     (DEG/KT/KT) (MB)
THOMAS PT LIGHT  1000   39 40  320/ 15/ 17   N/A
BALT KEY BRIDGE  0942   40     320/ 13/ 16  996.7R
COVE POINT       0942   38     350/ 24/ 28  996.4R
LEWISETTA        0948   40 44  340/ 13/ 18  996.1R
SOLOMONS ISLAND  0948      42  320/ 12/ 17   N/A
PINEY POINT      0948          340/ 21/ 24   N/A

$$





USA.gov is the U.S. government's official web portal to all federal, state and local government web resources and services.